Flag for U.S.A. Weather past 2 weeks in Topeka, Kansas, U.S.A.

Now
15 °F

Light snow. Mostly cloudy.


Feels Like: -3 °F
Forecast: 9 / 30 °F
Wind: 21 mph from Northwest

Location: Philip Billard Municipal Airport

Current Time: Feb 1, 2015 at 6:34:43 PM

Latest Report: Feb 1, 2015 at 5:53 PM


Visibility: 7 mi

Pressure: 30.21 "Hg

Humidity: 70%

Dew point: 7 °F

Location of TopekaLocation

Historic Weather in Topeka — Graph

°F

Topeka temperature yesterday

Maximum temperature yesterday: 39 °F (at 10:53 AM)
Minimum temperature yesterday: 33 °F (at 9:53 PM)
Average temperature yesterday: 36 °F

Past Weeks' High & Low Weather Summary

 TemperatureHumidityPressure
High77 °F (Jan 28, 2:53 PM)100% (Feb 1, 5:04 AM)30.61 "Hg (Feb 1, 5:04 AM)
Low17 °F (Feb 1, 4:53 PM)23% (Jan 17, 4:53 PM)29.67 "Hg (Jan 28, 2:53 PM)
Average39 °F65%30.11 "Hg
* Reported Jan 17 4:53 PM — Feb 1 4:53 PM, Topeka, Weather by CustomWeather, © 2014

Note: Actual official high and low records may vary slightly from our data, if they occured in-between our weather recording intervals... More about our weather records

Advertising

Topeka weather history for previous 24 hours

 ConditionsComfort  
Time TempWeatherWind HumidityBarometerVisibility
4:53 PM
Feb 1
17 °FLight snow. More clouds than sun.28 mph70%30.17 "Hg2 mi
3:56 PM19 °FLight snow. Mostly cloudy.22 mph71%30.10 "Hg3 mi
3:02 PM20 °FLight snow. Overcast.22 mph74%30.06 "Hg4 mi
2:53 PM20 °FLight snow. Overcast.22 mph74%30.08 "Hg2 mi
2:03 PM21 °FLight snow. Overcast.28 mph74%30.01 "Hg4 mi
1:53 PM22 °FLight snow. Mostly cloudy.25 mph75%30.03 "Hg2 mi
12:53 PM24 °FLight snow. Overcast.26 mph77%30.00 "Hg2 mi
12:02 PM26 °FLight snow. Overcast.24 mph77%29.96 "Hg4 mi
11:53 AM25 °FLight snow. Overcast.22 mph81%29.98 "Hg2 mi
10:53 AM28 °FLight snow. Ice fog.22 mph89%29.93 "Hg1 mi
9:53 AM31 °FLight snow. Ice fog.18 mph89%29.88 "Hg2 mi
8:53 AM33 °FLight snow. Fog.10 mph96%29.83 "Hg2 mi
7:53 AM34 °FLight snow. Mostly cloudy.10 mph92%29.80 "Hg7 mi
6:53 AM33 °FLight snow. Fog.7 mph96%29.76 "Hg4 mi
5:53 AM34 °FLight rain. Fog.6 mph97%29.74 "Hg5 mi
5:04 AM33 °FLight rain. Fog.3 mph100%29.72 "Hg2 mi
4:53 AM34 °FLight rain. Fog.3 mph97%29.73 "Hg3 mi
3:53 AM34 °FLight rain. Fog.3 mph97%29.74 "Hg4 mi
2:53 AM33 °FLight rain. Fog.7 mph96%29.77 "Hg3 mi
1:53 AM33 °FLight rain. Fog.6 mph96%29.80 "Hg3 mi
12:53 AM33 °FLight rain. Fog.5 mph96%29.83 "Hg4 mi
11:53 PM
Jan 31
33 °FLight snow. Fog.6 mph96%29.85 "Hg2 mi
10:53 PM33 °FLight snow. Fog.6 mph96%29.88 "Hg1 mi
9:53 PM33 °FLight snow. Fog.7 mph96%29.90 "Hg2 mi
8:53 PM34 °FLight snow. Fog.10 mph97%29.92 "Hg3 mi
7:53 PM35 °FLight rain. Fog.12 mph96%29.96 "Hg5 mi
6:53 PM37 °FLight rain. Fog.13 mph93%29.98 "Hg6 mi
Weather by CustomWeather, © 2014

See weather overviewHow to use our weather pages